Location: Newark
(21.1200°N, 73.4000°E)
Time: 01:00:24
(UTC+00:00)

Vanguard 1 Rocket - Pass Details

Date: 25 January 2021
Orbit: 654 x 4223 km, 34.3° (Epoch: 06 March)

Event Time Altitude Azimuth Distance (km) Brightness Sun altitude
Rises 13:55:08 0° 280° (W) 3,651 11.8 -14.8°
Reaches altitude 10° 13:57:34 10° 269° (W) 2,978 11.3 -15.4°
Maximum altitude 14:04:01 32° 208° (SSW) 2,474 10.0 -16.8°
Drops below altitude 10° 14:15:04 10° 151° (SSE) 5,157 11.1 -19.3°
Sets 14:21:01 0° 143° (SE) 6,818 11.6 -20.7°
